Weather History for Aniak, AK

Change the Weather History Date:

Sunday, October 27, 2013

  Actual Average Record
Temperature  
Mean Temperature 44 °F -  
Max Temperature 46 °F 27 °F 46 °F (2013)
Min Temperature 41 °F 16 °F -16 °F (1997)
Degree Days  
Heating Degree Days 22    
Moisture  
Dew Point 35 °F    
Average Humidity 71    
Maximum Humidity 87    
Minimum Humidity 54    
Precipitation  
Precipitation 0.03 in - - ()
Sea Level Pressure  
Sea Level Pressure 29.69 in    
Wind  
Wind Speed 13 mph (ESE)    
Max Wind Speed 21 mph    
Max Gust Speed 33 mph    
Visibility 10 miles    
Events      
Averages and records for this station are not official NWS values.
T = Trace of Precipitation, MM = Missing Value Source: NWS Daily Summary

Daily Weather History Graph

Daily Weather History Graph

Search for Another Location

Airport:

Trip Planner

Search our weather history database for the weather conditions in past years. The results will help you decide how hot, cold, wet, or windy it might be!

Date:

Astronomy

Oct. 27, 2013 Rise Set
Actual Time 9:55 AM AKDT 6:47 PM AKDT
Civil Twilight 9:08 AM AKDT 7:34 PM AKDT
Nautical Twilight 8:16 AM AKDT 8:25 PM AKDT
Astronomical Twilight 7:26 AM AKDT 9:16 PM AKDT
Moon 1:11 AM AKDT (10/27) 4:44 PM AKDT (10/27)
Length of Visible Light 10h 25m
Length of Day
8h 52m
Last Quarter, 42% of the Moon is Illuminated
Oct 27
Last Quarter
Nov 3
New
Nov 9
First Quarter
Nov 17
Full
Nov 25
Last Quarter

Hourly Weather History & Observations

Time (AKDT) Temp. Windchill Dew Point Humidity Pressure Visibility Wind Dir Wind Speed Gust Speed Precip Events Conditions
12:16 AM 44.6 °F 36.6 °F 32.0 °F 61% 29.78 in 10.0 mi ESE 19.6 mph 33.4 mph N/A   Overcast
12:36 AM 44.6 °F 36.4 °F 32.0 °F 61% 29.78 in 10.0 mi SE 20.7 mph 27.6 mph N/A   Overcast
12:56 AM - - - N/A% 29.78 in 10.0 mi SE 20.7 mph 33.4 mph N/A   Overcast
1:16 AM 42.8 °F 34.5 °F 32.0 °F 66% 29.78 in 10.0 mi SE 18.4 mph 32.2 mph N/A   Overcast
1:36 AM 42.8 °F 34.8 °F 32.0 °F 66% 29.78 in 10.0 mi SE 17.3 mph 25.3 mph N/A   Overcast
1:56 AM 44.6 °F 37.2 °F 32.0 °F 61% 29.78 in 10.0 mi SE 17.3 mph 29.9 mph N/A   Overcast
2:16 AM 44.6 °F 36.4 °F 32.0 °F 61% 29.78 in 10.0 mi SE 20.7 mph 31.1 mph N/A   Overcast
2:36 AM 42.8 °F 35.1 °F 33.8 °F 70% 29.77 in 10.0 mi SE 16.1 mph 21.9 mph N/A   Overcast
2:56 AM 44.6 °F 38.4 °F 32.0 °F 61% 29.77 in 10.0 mi SE 12.7 mph 24.2 mph N/A   Overcast
3:16 AM 44.6 °F 37.8 °F 32.0 °F 61% 29.78 in 10.0 mi SE 15.0 mph 24.2 mph N/A   Overcast
3:36 AM 44.6 °F 37.8 °F 33.8 °F 66% 29.78 in 10.0 mi SE 15.0 mph 24.2 mph N/A   Overcast
3:56 AM 44.6 °F 38.4 °F 33.8 °F 66% 29.79 in 10.0 mi SE 12.7 mph - N/A   Overcast
4:16 AM 44.6 °F 38.4 °F 33.8 °F 66% 29.78 in 10.0 mi SE 12.7 mph 19.6 mph N/A   Overcast
4:36 AM 44.6 °F 39.2 °F 33.8 °F 66% 29.79 in 10.0 mi SE 10.4 mph 17.3 mph N/A   Overcast
4:56 AM 44.6 °F 38.4 °F 33.8 °F 66% 29.79 in 10.0 mi SE 12.7 mph 18.4 mph N/A   Overcast
5:16 AM 44.6 °F 39.7 °F 33.8 °F 66% 29.79 in 10.0 mi SE 9.2 mph 29.9 mph N/A   Overcast
5:36 AM 44.6 °F 39.2 °F 33.8 °F 66% 29.79 in 10.0 mi SE 10.4 mph 16.1 mph N/A   Overcast
5:56 AM 44.6 °F 40.2 °F 35.6 °F 71% 29.79 in 10.0 mi SE 8.1 mph - N/A   Overcast
6:16 AM 44.6 °F 39.2 °F 33.8 °F 66% 29.79 in 10.0 mi SE 10.4 mph 18.4 mph N/A   Overcast
6:36 AM 44.6 °F 38.8 °F 35.6 °F 71% 29.79 in 10.0 mi SE 11.5 mph 18.4 mph N/A   Overcast
6:56 AM 44.6 °F 38.8 °F 35.6 °F 71% 29.79 in 10.0 mi SE 11.5 mph 17.3 mph N/A   Mostly Cloudy
7:16 AM 44.6 °F 39.2 °F 35.6 °F 71% 29.79 in 10.0 mi SE 10.4 mph - N/A   Scattered Clouds
7:36 AM 44.6 °F 39.2 °F 35.6 °F 71% 29.80 in 10.0 mi SE 10.4 mph 19.6 mph N/A   Mostly Cloudy
7:56 AM 44.6 °F 39.2 °F 35.6 °F 71% 29.80 in 10.0 mi SE 10.4 mph 17.3 mph N/A   Partly Cloudy
8:16 AM 44.6 °F 39.2 °F 35.6 °F 71% 29.80 in 10.0 mi SE 10.4 mph 16.1 mph N/A   Scattered Clouds
8:36 AM 44.6 °F 38.4 °F 35.6 °F 71% 29.80 in 10.0 mi ESE 12.7 mph 18.4 mph N/A   Overcast
8:56 AM 44.6 °F 39.2 °F 35.6 °F 71% 29.80 in 10.0 mi SE 10.4 mph - N/A   Overcast
9:16 AM 44.6 °F 40.7 °F 35.6 °F 71% 29.80 in 10.0 mi SE 6.9 mph - N/A   Overcast
9:36 AM 44.6 °F 40.7 °F 35.6 °F 71% 29.80 in 10.0 mi SE 6.9 mph - N/A   Overcast
9:56 AM 44.6 °F 40.7 °F 35.6 °F 71% 29.80 in 10.0 mi SE 6.9 mph - N/A   Mostly Cloudy
10:16 AM 44.6 °F 39.2 °F 35.6 °F 71% 29.79 in 10.0 mi ESE 10.4 mph - N/A   Mostly Cloudy
10:36 AM 44.6 °F 40.2 °F 35.6 °F 71% 29.79 in 10.0 mi SE 8.1 mph - N/A   Overcast
10:56 AM 44.6 °F 40.7 °F 35.6 °F 71% 29.79 in 10.0 mi SE 6.9 mph - N/A   Overcast
11:16 AM 44.6 °F 40.2 °F 35.6 °F 71% 29.78 in 10.0 mi SE 8.1 mph - N/A   Mostly Cloudy
11:36 AM 44.6 °F 40.7 °F 35.6 °F 71% 29.79 in 10.0 mi SE 6.9 mph - N/A   Partly Cloudy
11:56 AM 44.6 °F 40.2 °F 35.6 °F 71% 29.79 in 10.0 mi SE 8.1 mph - N/A   Partly Cloudy
12:16 PM 44.6 °F 42.2 °F 35.6 °F 71% 29.79 in 10.0 mi SSE 4.6 mph - N/A   Scattered Clouds
12:36 PM 44.6 °F 42.2 °F 37.4 °F 76% 29.79 in 10.0 mi SE 4.6 mph - N/A   Scattered Clouds
12:56 PM 44.6 °F 40.7 °F 35.6 °F 71% 29.78 in 10.0 mi SE 6.9 mph - N/A   Mostly Cloudy
1:16 PM 44.6 °F 40.2 °F 35.6 °F 71% 29.78 in 10.0 mi SE 8.1 mph 16.1 mph N/A   Partly Cloudy
1:36 PM 46.4 °F 41.9 °F 35.6 °F 66% 29.77 in 10.0 mi SE 9.2 mph - N/A   Partly Cloudy
1:56 PM 46.4 °F 42.9 °F 35.6 °F 66% 29.76 in 10.0 mi SE 6.9 mph - N/A   Clear
2:16 PM 46.4 °F 43.5 °F 37.4 °F 71% 29.75 in 10.0 mi SE 5.8 mph - N/A   Partly Cloudy
2:36 PM 46.4 °F 43.5 °F 35.6 °F 66% 29.74 in 10.0 mi SE 5.8 mph - N/A   Scattered Clouds
2:56 PM 46.4 °F 42.9 °F 35.6 °F 66% 29.72 in 10.0 mi ESE 6.9 mph - N/A   Scattered Clouds
3:16 PM 46.4 °F 40.7 °F 35.6 °F 66% 29.70 in 10.0 mi ESE 12.7 mph - N/A   Mostly Cloudy
3:36 PM 46.4 °F 42.4 °F 35.6 °F 66% 29.69 in 10.0 mi SE 8.1 mph - N/A   Mostly Cloudy
3:56 PM 46.4 °F 41.9 °F 35.6 °F 66% 29.67 in 10.0 mi SE 9.2 mph - N/A   Scattered Clouds
4:16 PM 46.4 °F 41.1 °F 35.6 °F 66% 29.65 in 10.0 mi ESE 11.5 mph 16.1 mph N/A   Mostly Cloudy
4:36 PM 46.4 °F 41.5 °F 35.6 °F 66% 29.64 in 10.0 mi SE 10.4 mph 17.3 mph N/A   Overcast
4:56 PM 44.6 °F 38.8 °F 37.4 °F 76% 29.62 in 10.0 mi SE 11.5 mph - N/A   Mostly Cloudy
5:16 PM 44.6 °F 40.7 °F 37.4 °F 76% 29.61 in 10.0 mi ESE 6.9 mph - N/A   Scattered Clouds
5:36 PM 44.6 °F 40.2 °F 37.4 °F 76% 29.60 in 10.0 mi ESE 8.1 mph - N/A   Scattered Clouds
5:56 PM 44.6 °F 38.8 °F 37.4 °F 76% 29.59 in 10.0 mi ESE 11.5 mph - N/A   Mostly Cloudy
6:16 PM 44.6 °F 39.2 °F 37.4 °F 76% 29.59 in 10.0 mi ESE 10.4 mph - N/A   Overcast
6:36 PM 44.6 °F 38.8 °F 37.4 °F 76% 29.57 in 10.0 mi ESE 11.5 mph - N/A   Overcast
6:56 PM 42.8 °F 37.5 °F 37.4 °F 81% 29.55 in 10.0 mi ESE 9.2 mph - N/A   Overcast
7:16 PM 42.8 °F 36.2 °F 37.4 °F 81% 29.54 in 10.0 mi East 12.7 mph 17.3 mph N/A   Overcast
7:36 PM 42.8 °F 36.2 °F 37.4 °F 81% 29.53 in 10.0 mi East 12.7 mph 17.3 mph N/A   Overcast
7:56 PM 42.8 °F 37.0 °F 37.4 °F 81% 29.52 in 10.0 mi East 10.4 mph - N/A   Overcast
8:16 PM 42.8 °F 37.0 °F 37.4 °F 81% 29.51 in 10.0 mi East 10.4 mph - N/A   Overcast
8:36 PM 42.8 °F 37.5 °F 37.4 °F 81% 29.50 in 10.0 mi East 9.2 mph - 0.01 in   Overcast
8:56 PM 42.8 °F 37.5 °F 37.4 °F 81% 29.48 in 10.0 mi East 9.2 mph - 0.01 in   Overcast
9:16 PM 42.8 °F 38.0 °F 37.4 °F 81% 29.47 in 10.0 mi East 8.1 mph - 0.01 in   Overcast
9:36 PM 41.0 °F 35.2 °F 37.4 °F 87% 29.45 in 10.0 mi East 9.2 mph - 0.02 in   Overcast
9:56 PM 41.0 °F 35.2 °F 35.6 °F 81% 29.45 in 10.0 mi East 9.2 mph - 0.02 in   Overcast
10:16 PM 41.0 °F 37.1 °F 35.6 °F 81% 29.43 in 10.0 mi East 5.8 mph - 0.01 in   Overcast
10:36 PM 41.0 °F 36.4 °F 37.4 °F 87% 29.41 in 10.0 mi East 6.9 mph - 0.01 in   Overcast
10:56 PM 41.0 °F 36.4 °F 37.4 °F 87% 29.39 in 10.0 mi East 6.9 mph - 0.02 in   Overcast
11:16 PM 41.0 °F 36.4 °F 35.6 °F 81% 29.38 in 10.0 mi East 6.9 mph - N/A   Overcast
11:36 PM 41.0 °F 36.4 °F 37.4 °F 87% 29.36 in 10.0 mi ENE 6.9 mph - 0.01 in   Overcast
11:56 PM 41.0 °F 38.0 °F 35.6 °F 81% 29.34 in 10.0 mi NE 4.6 mph - 0.02 in   Overcast